Location: Sternwarte_Laufen
(47.9344°N, 12.9346°E)
Time: 10:57:47
(UTC+02:00)

ISS - Pass Details

Date: 25 May 2018
Orbit: 402 x 407 km, 51.6° (Epoch: 24 May)

Event Time Altitude Azimuth Distance (km) Brightness Sun altitude
Rises 00:28:09 0° 286° (WNW) 2,321 0.4 -20.7°
Reaches altitude 10° 00:30:18 10° 293° (WNW) 1,460 -0.6 -20.7°
Maximum altitude 00:33:27 44° 8° (N) 570 -2.7 -20.8°
Enters shadow 00:35:43 17° 76° (ENE) 1,121 -1.5 -20.9°
